Location: *
(47.7167°N, 1.7333°W)
Time: 00:02:54
(UTC+00:00)

SPOT 5 - Pass Details

Date: 09 April 2020
Orbit: 624 x 814 km, 98.3° (Epoch: 04 June)

Event Time Altitude Azimuth Distance (km) Brightness Sun altitude
Exits shadow 22:10:48 45° 298° (WNW) 854 3.5 -28.5°
Drops below altitude 10° 22:14:14 10° 337° (NNW) 2,009 6.1 -28.8°
Sets 22:16:29 0° 342° (NNW) 2,927 7.2 -29.0°
